Flag for Congo Weather past 2 weeks in Pointe-Noire, Congo

Now
72 °F

Overcast.


Feels Like: 69 °F
Forecast: 68 / 75 °F
Wind: No wind

Location: Pointe Airport-Noire

Current Time: Jul 23, 2014 at 11:45:46 PM

Latest Report: Jul 23, 2014 at 11:00 PM


Visibility: 4 mi

Pressure: 30.07 "Hg

Humidity: 88%

Dew point: 68 °F

Location of Pointe-NoireLocation

Historic Weather in Pointe-Noire — Graph

°F

Pointe-Noire temperature yesterday

Maximum temperature yesterday: 75 °F (at 11:00 AM)
Minimum temperature yesterday: 66 °F (at 5:00 AM)
Average temperature yesterday: 71 °F

Past Weeks' High & Low Weather Summary

 TemperatureHumidityPressure
High77 °F (Jul 11, 1:00 PM)100% (Jul 9, 3:00 AM)30.09 "Hg (Jul 9, 3:00 AM)
Low64 °F (Jul 9, 3:00 AM)57% (Jul 17, 3:00 PM)29.89 "Hg (Jul 14, 4:00 PM)
Average71 °F85%30.01 "Hg
* Reported Jul 8 10:00 PM — Jul 23 10:00 PM, Pointe-Noire, Weather by CustomWeather, © 2014

Note: Actual official high and low records may vary slightly from our data, if they occured in-between our weather recording intervals... More about our weather records

Advertising

Pointe-Noire weather history for previous 24 hours

 ConditionsComfort  
Time TempWeatherWind HumidityBarometerVisibility
10:00 PM
Jul 23
72 °FOvercast.No wind83%30.07 "Hg4 mi
9:00 PM72 °FOvercast.2 mph83%30.07 "Hg4 mi
8:00 PM72 °FMostly cloudy.No wind83%30.04 "Hg4 mi
7:00 PM72 °FMostly cloudy.2 mph83%30.04 "Hg4 mi
6:00 PM72 °FScattered clouds.5 mph83%30.01 "Hg4 mi
5:00 PM73 °FScattered clouds.6 mph83%29.98 "Hg4 mi
4:00 PM73 °FScattered clouds.12 mph83%29.98 "Hg4 mi
3:00 PM75 °FScattered clouds.14 mph83%29.98 "Hg4 mi
2:00 PM75 °FPartly sunny.12 mph74%30.01 "Hg5 mi
12:00 PM75 °FBroken clouds.5 mph74%30.04 "Hg5 mi
11:00 AM75 °FBroken clouds.7 mph69%30.04 "Hg5 mi
10:00 AM73 °FScattered clouds.7 mph78%30.07 "Hg4 mi
9:00 AM72 °FFog.2 mph83%30.07 "Hg2 mi
6:00 AM64 °FFog.No wind94%30.01 "Hg2 mi
5:00 AM66 °FFog.No wind94%30.01 "Hg2 mi
4:00 AM66 °FFog.No wind94%29.98 "Hg2 mi
3:00 AM66 °FFog.No wind94%30.01 "Hg2 mi
2:00 AM68 °FFog.2 mph88%30.01 "Hg2 mi
12:00 AM68 °FFog.No wind94%30.01 "Hg2 mi
Weather by CustomWeather, © 2014

See weather overviewHow to use our weather pages